Location: Augirein
(42.9320°N, 0.9181°E)
Time: 16:54:46
(UTC+00:00)

NOSS 2-2 (E) - Pass Details

Date: 20 June 2021
Orbit: 448 x 1757 km, 63.3° (Epoch: 02 August)

Event Time Altitude Azimuth Distance (km) Brightness Sun altitude
Exits shadow 02:07:52 31° 264° (W) 827 3.9 -17.2°
Maximum altitude 02:09:00 42° 312° (NW) 666 3.8 -17.1°
Drops below altitude 10° 02:12:32 10° 25° (NNE) 1,723 7.2 -16.8°
Sets 02:14:58 0° 32° (NNE) 2,736 8.7 -16.5°
